Location: ????
(32.1228°N, 34.8377°E)
Time: 01:10:28
(UTC+00:00)

ATLAS CENTAUR Rocket - Pass Details

Date: 21 September 2020
Orbit: 664 x 36582 km, 28.4° (Epoch: 21 October)

Event Time Altitude Azimuth Distance (km) Brightness Sun altitude
Exits shadow 02:04:50 22° 265° (W) 5,148 5.6 -18.4°
Maximum altitude 02:14:23 69° 187° (S) 1,375 3.2 -16.4°
Drops below altitude 10° 02:18:54 10° 104° (ESE) 2,350 5.6 -15.4°
Sets 02:20:28 0° 101° (E) 3,079 6.5 -15.1°
